Location: Newark
(45.6000°N, 12.8833°E)
Time: 23:21:57
(UTC+00:00)

Vanguard 3 - Pass Details

Date: 24 November 2019
Orbit: 508 x 3263 km, 33.3° (Epoch: 08 December)

Event Time Altitude Azimuth Distance (km) Brightness Sun altitude
Rises 17:13:53 0° 278° (W) 7,228 13.3 -17.7°
Reaches altitude 10° 17:19:47 10° 269° (W) 6,099 12.8 -18.8°
Maximum altitude 17:34:17 30° 219° (SW) 3,938 11.0 -21.3°
Drops below altitude 10° 17:44:53 10° 164° (SSE) 4,401 10.8 -23.1°
Sets 17:48:21 0° 154° (SSE) 5,017 11.0 -23.7°
